{"data":{"norad_id":63134,"intl_designator":"2025-043C","name":"STARLINK-11605 [DTC]","alt_names":[],"object_type":"PAYLOAD","status":"ACTIVE","operator":null,"country":"US","launch_date":"2025-03-03","launch_site_code":"AFETR","launch_vehicle":null,"mission":null,"orbit_class":"UNKNOWN","rcs_meters":null,"size_class":null,"mass_kg":null,"dimensions":null,"purposes":["comms"],"wikipedia_slug":null,"has_3d_model":false,"image_url":null,"decayed_at":null,"tle_current":{"epoch":"2026-05-25T01:49:05.306304Z","epoch_age_seconds":58696,"freshness":"FRESH","line1":"1 63134U 25043C   26145.07575586  .00192595  00000+0  14681-2 0  9994","line2":"2 63134  42.9998 150.4671 0002961 277.5593  82.4939 15.70866491 71369","mean_motion":15.70866491,"eccentricity":0.0002961,"inclination_deg":42.9998,"raan_deg":150.4671,"arg_perigee_deg":277.5593,"mean_anomaly_deg":82.4939,"bstar":0.0014681,"rev_number":7136,"period_min":91.669152550533,"perigee_km":354.42524426258,"apogee_km":358.41344853092,"semimajor_km":6734.5563463968,"source":"CELESTRAK","updated_at":"2026-05-25T13:38:19.913827Z"}}}